Wind_Speed
43 46 49 51 52 54 56 59 62 64 64 63 63 63 62 60 58 56 54 52 50 49 50 50 51 50 50 50 50 49 48 47 46 45 43 43 42 40 40 40 40 39 39
38 41 45 48 49 51 53 55 58 60 62 62 62 62 62 62 60 60 57 53 51 50 50 50 50 50 51 51 52 51 50 49 48 47 46 45 44 43 42 42 41 41 41
30 33 38 42 44 46 49 52 54 57 59 60 60 60 61 61 61 60 58 56 53 51 50 50 50 50 50 50 51 51 50 50 50 49 48 47 46 45 44 43 43 43 42
25 27 29 33 37 40 43 47 49 52 56 58 58 59 59 59 60 59 57 57 55 52 51 51 51 50 49 49 49 49 49 50 50 49 49 48 48 47 47 45 45 45 45
18 19 20 23 28 33 37 40 43 47 51 54 55 57 57 57 58 59 58 58 56 54 53 52 51 51 50 50 50 49 49 49 50 50 49 50 50 50 49 47 46 46 45
13 14 14 15 18 23 28 33 37 40 45 48 50 53 55 55 56 57 57 56 55 54 53 51 50 50 49 49 50 50 50 51 51 52 51 51 51 49 49 48 47 46 45
8 9 8 8 10 14 18 23 29 34 38 42 45 48 50 51 52 53 56 56 54 53 51 50 50 50 50 49 50 51 50 51 52 52 51 51 51 50 50 49 48 48 47
5 3 3 3 6 9 13 16 20 25 29 33 37 41 44 46 48 49 51 52 52 50 49 48 48 49 49 49 50 50 51 51 52 51 50 50 50 49 49 50 50 49 48
7 6 3 2 2 4 7 11 14 17 21 26 29 32 37 40 42 44 46 48 49 48 46 45 45 45 47 47 47 47 50 51 51 52 51 50 48 47 48 50 50 49 49
9 9 8 7 5 4 3 6 10 14 16 21 24 27 31 34 36 40 42 45 47 47 45 44 44 44 44 44 46 47 49 49 49 50 50 50 49 50 50 50 51 51 51
11 12 11 10 7 5 4 5 6 8 11 15 19 22 25 27 31 35 37 39 41 43 43 43 43 44 44 45 46 47 48 47 47 48 50 51 51 51 51 52 53 52 52
12 12 12 11 10 9 8 6 6 6 9 12 15 17 19 21 24 29 31 34 37 38 40 40 40 41 42 44 45 46 46 46 47 48 49 51 51 52 53 55 55 54 53
12 12 12 12 12 11 10 9 8 6 6 7 9 11 13 15 17 21 26 30 32 33 33 34 35 37 39 41 42 43 45 46 47 48 50 51 52 53 54 55 55 55 54
13 12 12 11 11 10 10 9 7 6 5 5 7 8 10 12 14 17 20 23 26 28 29 31 33 35 36 39 41 43 45 45 46 48 51 52 53 54 55 56 56 56 56
8 9 8 8 9 8 8 8 6 4 3 4 5 7 9 12 14 16 18 20 23 26 27 29 31 34 36 38 40 42 44 45 47 50 52 53 53 55 56 57 58 58 59
6 6 6 6 6 5 5 5 4 3 2 2 4 7 9 11 14 16 18 20 23 25 28 30 32 35 37 39 42 44 46 47 49 51 53 54 56 58 58 60 60 61 60
5 5 6 6 5 5 5 4 3 2 2 2 4 6 9 11 14 17 20 22 24 26 28 30 33 35 38 41 43 45 47 49 51 54 56 57 59 61 61 62 62 63 63
4 5 5 4 4 4 5 5 5 5 5 5 6 8 10 13 15 18 21 24 26 28 30 33 35 38 41 44 46 48 50 52 55 57 59 61 62 63 64 64 65 65 65
5 5 5 6 6 6 6 7 8 9 10 11 12 14 16 18 20 22 25 28 31 34 36 37 40 42 45 48 50 53 55 57 60 62 64 65 66 67 68 68 69 68 69
8 8 8 8 9 10 11 12 13 14 15 17 18 20 22 24 26 28 30 33 36 39 42 44 46 48 50 53 56 58 60 62 63 64 65 66 67 68 69 70 70 69 69
11 11 12 12 13 15 16 17 18 20 20 22 23 24 26 28 30 32 34 37 40 43 46 49 51 54 56 58 59 62 63 65 66 66 67 68 69 69 69 69 69 69 70
14 15 15 16 17 18 19 21 22 23 25 26 27 29 30 32 35 37 39 42 45 48 51 54 56 59 61 62 62 64 65 67 67 67 68 68 68 69 68 68 68 69 70
17 18 18 19 20 21 22 24 25 26 28 29 31 33 35 38 40 43 45 48 50 53 55 58 60 62 63 65 66 66 66 67 66 65 65 65 65 65 65 65 66 67 67
20 20 21 22 23 25 26 27 29 30 32 34 36 38 41 43 45 48 50 52 54 56 57 59 61 63 65 66 67 67 66 65 64 64 63 62 62 61 61 61 63 64 64
22 23 24 25 26 28 30 32 33 35 37 39 40 42 45 47 49 52 54 55 56 58 59 61 63 64 64 65 65 64 64 63 63 62 61 59 58 58 58 58 59 59 59
25 26 27 29 30 32 34 36 37 39 41 42 44 46 49 51 53 54 55 57 58 60 61 62 63 63 63 62 61 61 61 61 61 60 58 57 56 55 55 55 54 54 53
Wind_Direction
255 253 251 249 248 246 244 241 239 236 235 234 233 232 232 232 232 232 233 234 234 236 237 239 240 242 244 245 245 247 248 250 251 253 254 255 256 258 260 262 264 266 268
259 256 252 249 248 245 243 242 239 236 235 234 233 232 232 231 231 231 231 232 234 236 238 239 241 243 244 245 246 247 249 250 252 253 255 256 257 259 261 263 265 266 268
261 258 254 250 247 245 243 242 239 236 235 233 232 232 231 230 229 231 232 232 233 235 238 240 241 242 243 245 246 247 249 251 253 254 256 258 259 260 262 264 265 266 267
266 262 258 251 247 244 242 240 238 236 234 232 231 231 230 230 230 231 231 231 232 235 237 238 239 239 241 244 245 248 251 252 253 255 256 258 260 262 262 263 265 266 267
270 266 263 257 250 244 240 238 236 235 233 232 231 230 229 230 230 230 230 231 232 234 235 237 237 239 241 244 246 249 253 254 255 255 257 259 261 262 264 264 264 265 266
274 270 264 259 252 244 238 235 234 233 232 231 231 230 229 229 231 231 230 230 231 233 236 237 237 238 241 244 245 248 252 254 256 257 258 259 260 262 264 264 264 264 265
283 276 264 251 242 236 232 231 231 231 231 231 230 229 229 230 231 231 230 229 231 234 236 237 238 239 241 243 244 248 251 253 255 257 258 259 261 263 264 264 265 264 265
333 306 250 224 227 223 223 226 226 225 227 228 229 229 228 229 230 231 230 230 231 233 236 237 238 239 241 244 245 248 251 254 255 256 259 260 261 263 265 265 266 266 266
44 48 65 95 148 194 212 219 219 219 222 224 224 225 225 227 228 228 229 229 229 231 236 238 239 240 241 244 246 247 250 253 257 259 260 261 261 263 264 265 266 267 268
60 66 76 84 91 108 164 205 215 218 222 224 223 220 219 223 225 226 228 229 230 233 237 240 240 241 242 244 246 249 251 255 258 258 259 261 262 263 265 266 267 268 269
74 74 74 74 84 94 127 158 188 212 216 217 219 220 219 220 223 225 227 229 231 233 236 240 242 243 244 246 248 251 253 255 257 259 261 262 262 263 265 266 267 268 270
79 81 80 76 81 84 96 126 149 176 192 204 211 212 213 218 221 225 227 229 232 235 238 240 242 245 246 248 250 252 253 255 258 259 261 263 264 265 267 268 269 270 270
78 81 78 78 82 83 89 105 114 126 151 171 188 204 208 214 218 223 227 229 232 236 239 241 244 246 248 249 251 254 256 258 260 261 263 264 266 266 267 268 269 270 269
75 74 71 70 76 80 84 97 101 103 128 159 179 191 203 210 219 225 230 235 238 241 244 247 248 248 250 253 255 258 259 261 262 264 265 267 267 268 269 269 270 270 270
71 71 68 63 64 71 78 83 92 103 136 176 200 212 225 227 228 234 237 243 246 248 250 253 253 253 256 257 259 261 262 263 264 266 267 268 269 270 269 270 270 270 271
54 60 62 55 53 58 61 59 65 79 128 202 226 236 238 238 242 246 248 251 251 253 255 257 259 261 262 263 263 264 264 265 266 268 268 269 269 269 269 270 270 270 270
37 44 48 49 46 43 41 39 37 26 357 293 264 260 259 261 259 259 260 259 260 263 264 265 266 267 267 268 267 267 268 268 269 270 271 271 270 270 270 270 270 269 269
19 21 25 18 13 10 8 2 354 344 331 315 299 288 281 278 275 272 269 268 269 270 270 271 271 272 272 272 271 271 272 273 272 272 273 272 272 272 270 270 270 268 268
348 347 346 341 339 336 333 330 326 321 314 308 304 299 294 291 287 283 280 277 276 276 276 275 275 275 275 275 275 275 275 275 275 275 275 274 273 271 269 268 268 268 267
319 318 318 317 316 315 315 313 312 310 308 305 302 299 295 293 291 288 285 282 280 280 280 279 278 278 278 278 278 278 278 278 278 277 276 274 272 271 270 270 268 267 267
304 305 306 306 307 308 309 309 308 308 307 305 304 301 299 297 296 294 291 288 285 284 283 283 283 282 282 282 281 281 281 280 278 278 276 275 273 272 271 270 268 267 266
300 301 302 302 304 305 307 307 307 306 306 306 305 304 303 301 300 298 297 294 292 289 287 286 286 285 285 285 284 284 283 282 281 279 278 276 275 273 271 270 268 267 266
297 299 300 302 304 305 306 307 307 308 308 308 307 306 304 303 302 301 300 298 296 294 292 290 289 288 288 287 286 286 285 284 283 282 280 278 276 273 271 269 267 266 265
296 299 301 303 304 305 306 307 307 307 307 307 306 305 305 304 304 303 302 300 298 297 295 294 292 291 290 289 288 287 285 284 284 283 281 279 277 274 271 268 267 265 264
298 299 301 303 304 305 306 306 306 307 307 306 306 306 306 306 305 304 303 302 301 300 298 296 295 294 293 291 289 288 287 285 284 283 281 280 277 275 271 269 267 265 263
298 299 301 303 304 305 306 306 306 307 307 308 307 307 307 307 306 306 305 304 304 303 301 300 299 297 296 294 291 289 288 287 286 285 282 280 278 276 273 270 268 265 262
Height
5637 5638 5640 5643 5647 5651 5656 5662 5668 5675 5682 5689 5697 5704 5712 5719 5726 5732 5737 5743 5748 5753 5757 5761 5765 5769 5772 5777 5780 5783 5786 5789 5792 5794 5797 5799 5801 5802 5804 5805 5805 5806 5806
5627 5627 5628 5630 5634 5638 5643 5648 5654 5661 5669 5676 5683 5691 5699 5706 5714 5720 5726 5732 5738 5744 5748 5752 5756 5760 5764 5767 5770 5774 5777 5780 5783 5785 5787 5790 5793 5794 5795 5796 5797 5797 5798
5617 5617 5618 5619 5622 5625 5630 5635 5641 5648 5656 5663 5670 5678 5686 5694 5701 5709 5716 5722 5728 5734 5739 5742 5747 5751 5754 5758 5761 5765 5768 5771 5773 5776 5778 5781 5783 5785 5786 5787 5787 5788 5788
5610 5609 5609 5609 5611 5615 5618 5623 5629 5636 5643 5650 5658 5667 5675 5683 5692 5698 5704 5711 5717 5723 5728 5732 5737 5741 5745 5749 5752 5755 5759 5761 5764 5766 5769 5771 5773 5774 5776 5777 5778 5778 5778
5604 5603 5602 5601 5602 5604 5608 5613 5618 5625 5632 5639 5648 5656 5664 5672 5679 5686 5693 5700 5706 5713 5718 5723 5727 5731 5736 5740 5743 5746 5749 5752 5754 5756 5758 5760 5762 5763 5764 5766 5767 5767 5768
5600 5599 5597 5597 5597 5598 5601 5605 5611 5617 5623 5630 5638 5646 5654 5662 5669 5676 5683 5690 5696 5702 5708 5713 5717 5722 5726 5730 5733 5736 5739 5742 5744 5746 5748 5749 5751 5753 5754 5755 5756 5757 5758
5598 5597 5595 5595 5595 5595 5598 5601 5606 5611 5617 5623 5630 5637 5645 5652 5659 5666 5673 5680 5686 5693 5699 5704 5708 5713 5717 5720 5724 5727 5729 5732 5734 5736 5738 5739 5741 5742 5743 5744 5744 5745 5747
5598 5596 5595 5594 5594 5595 5597 5600 5603 5607 5612 5618 5624 5630 5636 5643 5650 5657 5664 5671 5678 5684 5689 5694 5699 5703 5707 5711 5714 5717 5720 5722 5724 5726 5727 5729 5730 5731 5732 5732 5733 5734 5735
5599 5598 5596 5596 5595 5596 5597 5599 5602 5605 5610 5614 5619 5625 5631 5637 5643 5649 5656 5663 5669 5675 5680 5686 5690 5694 5698 5701 5704 5707 5710 5712 5714 5716 5717 5718 5719 5720 5721 5721 5722 5722 5723
5602 5600 5599 5598 5597 5598 5599 5600 5602 5605 5608 5612 5617 5621 5626 5631 5636 5642 5649 5656 5662 5667 5672 5678 5682 5685 5689 5692 5695 5698 5700 5702 5703 5705 5706 5707 5708 5709 5709 5710 5710 5710 5710
5605 5604 5602 5601 5601 5600 5600 5602 5603 5605 5608 5611 5615 5619 5623 5628 5633 5638 5644 5649 5655 5660 5665 5669 5673 5677 5680 5683 5685 5688 5690 5691 5693 5694 5695 5696 5697 5697 5698 5698 5698 5697 5697
5609 5608 5607 5605 5604 5603 5603 5603 5605 5607 5609 5612 5615 5619 5622 5626 5630 5635 5639 5644 5649 5654 5658 5661 5665 5668 5671 5673 5676 5678 5679 5681 5682 5683 5683 5684 5684 5685 5685 5685 5684 5684 5684
5613 5612 5611 5610 5609 5608 5607 5608 5608 5609 5611 5613 5616 5618 5621 5624 5628 5632 5636 5641 5644 5648 5652 5655 5657 5660 5662 5664 5666 5668 5669 5669 5670 5671 5671 5671 5671 5671 5671 5671 5671 5670 5670
5617 5616 5615 5614 5613 5613 5612 5612 5612 5613 5614 5615 5617 5620 5622 5625 5628 5631 5634 5637 5640 5643 5645 5648 5650 5651 5653 5655 5656 5657 5658 5658 5658 5658 5658 5658 5658 5657 5657 5657 5656 5656 5655
5621 5620 5620 5618 5617 5616 5616 5616 5616 5616 5616 5617 5618 5620 5622 5624 5627 5629 5631 5633 5635 5637 5639 5640 5642 5643 5644 5644 5645 5645 5646 5646 5646 5645 5644 5644 5643 5642 5642 5641 5641 5640 5640
5625 5624 5622 5621 5620 5620 5619 5618 5618 5618 5618 5618 5619 5620 5621 5623 5624 5625 5627 5628 5629 5631 5632 5633 5633 5633 5633 5633 5633 5633 5633 5632 5632 5631 5630 5629 5628 5626 5625 5624 5624 5624 5623
5627 5626 5625 5624 5623 5622 5621 5620 5620 5619 5619 5618 5618 5619 5619 5620 5620 5621 5622 5623 5623 5624 5624 5624 5623 5623 5622 5621 5621 5620 5619 5618 5617 5615 5614 5612 5610 5608 5607 5606 5606 5605 5605
5630 5628 5627 5626 5625 5623 5622 5621 5620 5620 5619 5618 5618 5617 5617 5616 5616 5616 5616 5616 5616 5616 5615 5614 5613 5612 5610 5608 5607 5606 5604 5602 5600 5598 5596 5594 5591 5589 5587 5586 5586 5586 5585
5630 5629 5628 5627 5625 5624 5623 5622 5620 5619 5618 5616 5615 5613 5612 5611 5610 5609 5608 5607 5606 5605 5604 5603 5601 5599 5597 5594 5591 5589 5587 5585 5582 5579 5576 5572 5570 5568 5566 5565 5566 5566 5565
5631 5629 5628 5627 5625 5623 5622 5620 5618 5616 5614 5612 5610 5608 5607 5605 5603 5601 5599 5598 5596 5594 5592 5590 5587 5585 5582 5578 5575 5571 5568 5565 5562 5558 5554 5550 5547 5545 5543 5542 5543 5543 5544
5630 5628 5627 5625 5623 5621 5619 5617 5615 5612 5610 5607 5605 5602 5599 5597 5594 5592 5589 5587 5584 5581 5578 5575 5571 5567 5563 5559 5555 5550 5546 5543 5539 5535 5532 5527 5524 5522 5520 5519 5518 5519 5520
5628 5626 5624 5622 5620 5618 5616 5613 5610 5607 5604 5601 5597 5594 5591 5588 5584 5581 5577 5573 5569 5565 5561 5557 5552 5547 5542 5538 5533 5528 5523 5518 5514 5511 5507 5504 5500 5498 5496 5495 5494 5494 5495
5625 5623 5621 5618 5616 5613 5610 5607 5604 5600 5597 5593 5589 5586 5582 5577 5573 5568 5563 5558 5553 5548 5542 5537 5532 5527 5521 5515 5510 5504 5499 5494 5489 5486 5482 5479 5476 5473 5472 5471 5470 5470 5471
5621 5619 5616 5614 5611 5608 5604 5601 5597 5593 5589 5585 5580 5576 5571 5566 5560 5554 5548 5542 5536 5530 5524 5518 5512 5506 5500 5493 5487 5482 5476 5471 5467 5462 5459 5455 5452 5450 5449 5448 5448 5447 5448
5616 5614 5611 5608 5605 5601 5597 5593 5589 5585 5580 5575 5570 5565 5559 5553 5547 5540 5533 5526 5519 5511 5505 5499 5492 5486 5480 5472 5465 5459 5455 5450 5445 5441 5437 5433 5430 5429 5427 5426 5426 5426 5427
5611 5608 5605 5602 5598 5594 5590 5585 5580 5576 5570 5565 5559 5553 5547 5540 5533 5525 5517 5508 5501 5493 5485 5477 5470 5463 5457 5450 5444 5439 5433 5428 5424 5419 5416 5413 5411 5408 5407 5406 5406 5407 5408